Location: ????????
(55.6189°N, 38.3031°E)
Time: 10:50:53
(UTC+00:00)

Cosmos 1680 Rocket - Pass Details

Date: 15 November 2019
Orbit: 759 x 782 km, 74.1° (Epoch: 14 December)

Event Time Altitude Azimuth Distance (km) Brightness Sun altitude
Exits shadow 02:28:09 34° 227° (SW) 1,262 4.2 -21.1°
Drops below altitude 10° 02:31:53 10° 188° (S) 2,330 5.9 -20.6°
Sets 02:34:24 0° 181° (S) 3,255 6.8 -20.2°
